Location: Moscow
(55.7500°N, 37.5830°E)
Time: 15:51:10
(UTC+03:00)

Transit 2A - Pass Details

Date: 08 December 2021
Orbit: 591 x 967 km, 66.7° (Epoch: 17 January)

Event Time Altitude Azimuth Distance (km) Brightness Sun altitude
Rises 06:20:46 0° 312° (NW) 3,630 - -18.7°
Reaches altitude 10° 06:23:24 10° 317° (NW) 2,703 - -18.4°
Exits shadow 06:25:18 20° 323° (NW) 2,065 7.8 -18.1°
Maximum altitude 06:29:40 54° 34° (NE) 1,167 7.0 -17.5°
Drops below altitude 10° 06:35:51 10° 111° (ESE) 2,668 10.1 -16.7°
Sets 06:38:25 0° 116° (ESE) 3,578 11.2 -16.3°
